Hourly Weather Abrikosovyy

Today, 5 August, Thursday

Time Temperature Precipitation Wind Pressure Humidity
00:00 +26°C° 0 mm 3 mps 755 mmHg 45%
01:00 +25°C° 0 mm 3 mps 755 mmHg 46%
02:00 +25°C° 0 mm 3 mps 756 mmHg 47%
03:00 +24°C° 0 mm 3 mps 756 mmHg 49%
04:00 +24°C° 0 mm 3 mps 756 mmHg 52%
05:00 +24°C° 0 mm 3 mps 756 mmHg 55%
06:00 +24°C° 0 mm 2 mps 756 mmHg 58%
07:00 +26°C° 0 mm 2 mps 756 mmHg 53%
08:00 +28°C° 0 mm 2 mps 756 mmHg 49%
09:00 +30°C° 0 mm 2 mps 756 mmHg 44%
10:00 +33°C° 0 mm 3 mps 756 mmHg 39%
11:00 +34°C° 0 mm 3 mps 756 mmHg 34%
12:00 +36°C° 0 mm 3 mps 755 mmHg 30%
13:00 +36°C° 0 mm 3 mps 755 mmHg 29%
14:00 +36°C° 0 mm 3 mps 755 mmHg 29%
15:00 +36°C° 0 mm 4 mps 754 mmHg 29%
16:00 +35°C° 0 mm 4 mps 754 mmHg 31%
17:00 +34°C° 0 mm 4 mps 754 mmHg 34%
18:00 +33°C° 0 mm 4 mps 754 mmHg 36%
19:00 +32°C° 0.1 mm 4 mps 754 mmHg 38%
20:00 +30°C° 0.1 mm 3 mps 754 mmHg 41%
21:00 +29°C° 0.1 mm 3 mps 754 mmHg 43%
22:00 +29°C° 0 mm 4 mps 754 mmHg 41%
23:00 +28°C° 0 mm 4 mps 754 mmHg 39%

Tomorrow, 6 August, Friday

Time Temperature Precipitation Wind Pressure Humidity
00:00 +28°C° 0 mm 4 mps 753 mmHg 37%
01:00 +28°C° 0 mm 4 mps 753 mmHg 37%
02:00 +27°C° 0 mm 4 mps 753 mmHg 37%
03:00 +27°C° 0 mm 4 mps 753 mmHg 37%
04:00 +26°C° 0 mm 4 mps 753 mmHg 38%
05:00 +26°C° 0 mm 4 mps 754 mmHg 39%
06:00 +26°C° 0 mm 5 mps 754 mmHg 40%
07:00 +28°C° 0 mm 6 mps 753 mmHg 34%
08:00 +32°C° 0 mm 6 mps 753 mmHg 29%
09:00 +34°C° 0 mm 7 mps 753 mmHg 24%
10:00 +35°C° 0 mm 7 mps 753 mmHg 23%
11:00 +36°C° 0 mm 7 mps 753 mmHg 22%
12:00 +36°C° 0 mm 7 mps 752 mmHg 21%
13:00 +38°C° 0 mm 7 mps 752 mmHg 21%
14:00 +39°C° 0 mm 7 mps 751 mmHg 20%
15:00 +40°C° 0 mm 7 mps 751 mmHg 19%
16:00 +40°C° 0 mm 7 mps 751 mmHg 19%
17:00 +40°C° 0 mm 6 mps 750 mmHg 20%
18:00 +39°C° 0 mm 6 mps 750 mmHg 20%
19:00 +38°C° 0 mm 6 mps 750 mmHg 22%
20:00 +35°C° 0 mm 6 mps 750 mmHg 23%
21:00 +33°C° 0 mm 6 mps 750 mmHg 25%
22:00 +33°C° 0 mm 7 mps 750 mmHg 24%
23:00 +32°C° 0 mm 7 mps 750 mmHg 23%

Day after tomorrow, 7 August, Saturday

Time Temperature Precipitation Wind Pressure Humidity
00:00 +32°C° 0 mm 7 mps 750 mmHg 22%
01:00 +30°C° 0 mm 7 mps 750 mmHg 23%
02:00 +30°C° 0 mm 7 mps 750 mmHg 23%
03:00 +29°C° 0 mm 6 mps 750 mmHg 23%
04:00 +29°C° 0 mm 6 mps 750 mmHg 24%
05:00 +28°C° 0 mm 6 mps 750 mmHg 25%
06:00 +28°C° 0 mm 6 mps 750 mmHg 26%
07:00 +30°C° 0 mm 6 mps 750 mmHg 25%
08:00 +32°C° 0 mm 7 mps 750 mmHg 23%
09:00 +34°C° 0 mm 8 mps 750 mmHg 21%
10:00 +36°C° 0 mm 7 mps 750 mmHg 20%
11:00 +39°C° 0 mm 7 mps 750 mmHg 18%
12:00 +40°C° 0 mm 7 mps 749 mmHg 16%
13:00 +41°C° 0 mm 7 mps 749 mmHg 16%
14:00 +42°C° 0 mm 6 mps 749 mmHg 15%
15:00 +42°C° 0 mm 6 mps 749 mmHg 15%
16:00 +42°C° 0 mm 6 mps 748 mmHg 15%
17:00 +42°C° 0 mm 5 mps 748 mmHg 16%
18:00 +42°C° 0 mm 5 mps 748 mmHg 16%
19:00 +39°C° 0 mm 5 mps 748 mmHg 20%
20:00 +36°C° 0 mm 6 mps 748 mmHg 23%
21:00 +34°C° 0 mm 6 mps 748 mmHg 26%
22:00 +33°C° 0 mm 5 mps 749 mmHg 26%
23:00 +33°C° 0 mm 5 mps 749 mmHg 26%

8 August, Sunday

Time Temperature Precipitation Wind Pressure Humidity
00:00 +33°C° 0 mm 5 mps 749 mmHg 26%
01:00 +32°C° 0 mm 4 mps 749 mmHg 30%
02:00 +30°C° 0 mm 4 mps 750 mmHg 33%
03:00 +29°C° 0 mm 3 mps 750 mmHg 37%
04:00 +29°C° 0 mm 3 mps 750 mmHg 39%
05:00 +28°C° 0 mm 2 mps 751 mmHg 41%
06:00 +28°C° 0 mm 2 mps 751 mmHg 42%
07:00 +29°C° 0 mm 3 mps 751 mmHg 40%
08:00 +32°C° 0 mm 4 mps 751 mmHg 38%
09:00 +33°C° 0 mm 4 mps 752 mmHg 36%
10:00 +33°C° 0 mm 4 mps 752 mmHg 35%
11:00 +33°C° 0 mm 3 mps 752 mmHg 34%
12:00 +31°C° 0 mm 3 mps 752 mmHg 34%
13:00 +33°C° 0 mm 3 mps 752 mmHg 32%
14:00 +33°C° 0 mm 4 mps 752 mmHg 31%
15:00 +34°C° 0 mm 5 mps 753 mmHg 30%
16:00 +33°C° 0 mm 5 mps 753 mmHg 30%
17:00 +33°C° 0 mm 5 mps 753 mmHg 29%
18:00 +33°C° 0 mm 5 mps 753 mmHg 29%
19:00 +30°C° 0 mm 4 mps 753 mmHg 32%
20:00 +29°C° 0 mm 3 mps 753 mmHg 34%
21:00 +28°C° 0 mm 2 mps 753 mmHg 36%
22:00 +27°C° 0 mm 2 mps 753 mmHg 37%
23:00 +27°C° 0 mm 3 mps 753 mmHg 39%

9 August, Monday

Time Temperature Precipitation Wind Pressure Humidity
00:00 +27°C° 0 mm 3 mps 753 mmHg 40%
01:00 +27°C° 0 mm 3 mps 753 mmHg 39%
02:00 +26°C° 0 mm 3 mps 753 mmHg 38%
03:00 +26°C° 0 mm 4 mps 753 mmHg 38%
04:00 +26°C° 0 mm 4 mps 753 mmHg 37%
05:00 +26°C° 0 mm 4 mps 753 mmHg 37%
06:00 +27°C° 0 mm 5 mps 753 mmHg 36%
07:00 +29°C° 0 mm 5 mps 753 mmHg 32%
08:00 +32°C° 0 mm 6 mps 753 mmHg 29%
09:00 +34°C° 0 mm 7 mps 753 mmHg 25%
10:00 +34°C° 0 mm 7 mps 753 mmHg 24%
11:00 +35°C° 0 mm 7 mps 753 mmHg 23%
12:00 +36°C° 0 mm 7 mps 753 mmHg 23%
13:00 +36°C° 0 mm 7 mps 753 mmHg 22%
14:00 +38°C° 0 mm 7 mps 753 mmHg 21%
15:00 +38°C° 0 mm 7 mps 753 mmHg 21%
16:00 +36°C° 0 mm 7 mps 753 mmHg 23%
17:00 +35°C° 0 mm 8 mps 753 mmHg 25%
18:00 +34°C° 0 mm 8 mps 753 mmHg 28%
19:00 +33°C° 0 mm 8 mps 753 mmHg 29%
20:00 +32°C° 0 mm 8 mps 753 mmHg 30%
21:00 +32°C° 0 mm 9 mps 753 mmHg 31%
22:00 +31°C° 0 mm 9 mps 753 mmHg 33%
23:00 +29°C° 0 mm 8 mps 753 mmHg 35%

10 August, Tuesday

Time Temperature Precipitation Wind Pressure Humidity
00:00 +29°C° 0 mm 8 mps 753 mmHg 36%
01:00 +28°C° 0 mm 7 mps 753 mmHg 38%
02:00 +27°C° 0 mm 6 mps 753 mmHg 40%
03:00 +27°C° 0 mm 6 mps 753 mmHg 42%
04:00 +26°C° 0.1 mm 5 mps 753 mmHg 45%
05:00 +25°C° 0.1 mm 4 mps 753 mmHg 49%
06:00 +23°C° 0.1 mm 4 mps 753 mmHg 53%
07:00 +27°C° 0.1 mm 4 mps 753 mmHg 45%
08:00 +29°C° 0.1 mm 5 mps 753 mmHg 38%
09:00 +32°C° 0.1 mm 6 mps 753 mmHg 30%
10:00 +34°C° 0 mm 5 mps 752 mmHg 27%
11:00 +36°C° 0 mm 5 mps 752 mmHg 23%
12:00 +39°C° 0 mm 5 mps 752 mmHg 19%
13:00 +38°C° 0 mm 4 mps 751 mmHg 19%
14:00 +40°C° 0 mm 4 mps 751 mmHg 18%
15:00 +41°C° 0 mm 4 mps 751 mmHg 17%
16:00 +40°C° 0 mm 4 mps 751 mmHg 17%
17:00 +40°C° 0 mm 4 mps 750 mmHg 18%
18:00 +40°C° 0 mm 4 mps 750 mmHg 18%
19:00 +37°C° 0 mm 4 mps 750 mmHg 20%
20:00 +34°C° 0 mm 4 mps 750 mmHg 23%
21:00 +31°C° 0 mm 3 mps 750 mmHg 26%
22:00 +30°C° 0 mm 3 mps 750 mmHg 28%
23:00 +29°C° 0 mm 3 mps 750 mmHg 31%
Show more

We Need Your Consent

Meteoprog and our Service Providers may store and access personal data such as cookies, device identifiers or other similar technologies on your device and process such data to personalise content and ads, as well as provide social media features and to analyse the traffic.

  • Store and/or access information on your device

    Cookies, device identifiers or other information can be stored or accessed on your device for the purposes indicated above.

  • Personalised ads and content, ad and content measurement, audience insights, and products development

    Ads and content can be personalised based on a profile. More data can be added to better personalise ads and content. Ad and content performance can be measured. Insights about the audience who saw the ads and content can be derived. Such data can be used to develop or improve user’s experience, systems and software.

By clicking ‘I Agree’ you will allow the use of indicated cookies, device identifiers, web beacons or other similar technologies. Your settings can be changed in the browser on your device.

For certain purposes, legitimate interests may be relied on, rather than consent. You can read more about this in our Privacy and Cookie Policy.